sat.trackr.live / text

‹ back to catalog

STARLINK-34080

NORAD 64116 · 2025-110W

PAYLOAD ACTIVE UNKNOWN

§ Identity

Operator
Country
US
Launch date
2025-05-23
Launch site
AFWTR
Launch vehicle
Mass (kg)
RCS (m²)

Purposes: comms

External: N2YO · Heavens-Above · Gunter

§ Orbital elements

Epoch: 2026-09-20T18:16:22.680768Z

Period
94.01 min
Inclination
53.1569°
Eccentricity
0.0002537
Mean motion
15.31718705 rev/d
Perigee alt
468.9 km
Apogee alt
472.4 km
Semi-major
6,848.8 km
B*
6.7392e-4
RAAN
198.9130°
Arg perigee
82.8455°
Mean anomaly
277.2835°
Rev number
7,576

§ Raw data

STARLINK-340801 64116U 25110W   26263.76137362  .00020618  00000+0  67392-3 0  99972 64116  53.1569 198.9130 0002537  82.8455 277.2835 15.31718705 75766

JSON: /api/v1/satellites/64116 · /tle

For live sub-satellite position, see the globe view (requires WebGL).

§ Visibility from observer

Set your observer location to see the next 7 days of passes ≥ 10°. The values pass through the URL so the page stays shareable.

No JS? Fill the form by hand. The geolocation button needs JavaScript.